Tracking 28790 objects as of 19-Apr-2024
HD Live streaming from Space Station
objects crossing your sky now

ARIANE 44LP DEB

Track ARIANE 44LP DEB now!


NORAD ID: 33544
Int'l Code: 1988-109T
Perigee: 394.8 km
Apogee: 34,438.8 km
Inclination: 7.2 °
Period: 608.5 minutes
Semi major axis: 23787 km
RCS: 0.2316 m2 (medium)
Launch date: December 11, 1988
Source: France (FR)
Launch site: FRENCH GUIANA (FRGUI)

Note: This is SATELLITE DEBRIS
Your satellite tracking list
Your tracking list is empty




NASA's NSSDC Master Catalog

Two Line Element Set (TLE):
1 33544U 88109T   24096.94334938  .00000260  00000-0  66851-3 0  9996
2 33544   7.1919  24.9676 7155757 124.8847 324.0670  2.36630601184409
Source of the keplerian elements: AFSPC